Location: Unspecified
(29.2675°N, 0.0000°E)
Time: 21:50:49
(UTC+00:00)

ISS - Visible Passes

Search period start: 23 April 2019 00:00
Search period end: 03 May 2019 00:00
Orbit: 408 x 410 km, 51.6° (Epoch: 24 April)

Date Brightness Start Highest point End Pass type
(mag) Time Alt. Az. Time Alt. Az. Time Alt. Az.
25 Apr -1.4 04:17:00 10° S 04:19:23 19° SE 04:21:47 10° E visible
27 Apr -3.6 04:12:30 27° SSW 04:14:06 66° SE 04:17:23 10° NE visible
28 Apr -1.9 03:23:58 26° ESE 03:23:58 26° ESE 03:26:13 10° ENE visible
29 Apr -2.8 04:08:05 29° WNW 04:08:57 34° NW 04:12:00 10° NNE visible
30 Apr -2.2 03:19:20 34° NE 03:19:20 34° NE 03:21:20 10° NE visible
01 May -1.5 04:03:14 13° NW 04:03:55 14° NW 04:05:43 10° N visible
02 May -1.4 03:14:19 18° N 03:14:19 18° N 03:15:39 10° NNE visible
